Terminal Aerodrome Forecast
Issued by NWS La Crosse, WI

Home | Current Version | Previous Version | Text Only | Print | Product List | Glossary On
Versions: 1 2 3 4 5 6 7 8 9 10 11 12 13 14 15 16 17 18 19 20 21 22 23 24 25 26 27 28 29 30 31 32 33 34 35 36 37 38 39
000
FTUS43 KARX 310526
TAFRST
TAF
KRST 310526Z 3106/0106 22009KT P6SM FEW150
     FM311300 32007KT P6SM BKN015
     FM311900 02008KT P6SM BKN020
     FM010400 04012KT 4SM -SN OVC008=

USA.gov is the U.S. government's official web portal to all federal, state and local government web resources and services.